TimeCDT,TemperatureF,Dew PointF,Humidity,Sea Level PressureIn,VisibilityMPH,Wind Direction,Wind SpeedMPH,Gust SpeedMPH,PrecipitationIn,Events,Conditions,WindDirDegrees,DateUTC
12:53 AM,42.1,30.0,62,30.14,10.0,SW,8.1,-,N/A,,Clear,230,2013-03-14 05:53:00
1:53 AM,41.0,30.9,67,30.14,10.0,WSW,8.1,-,N/A,,Clear,250,2013-03-14 06:53:00
2:53 AM,39.9,30.0,68,30.12,10.0,WSW,8.1,-,N/A,,Clear,250,2013-03-14 07:53:00
3:53 AM,42.1,30.9,65,30.11,10.0,WSW,11.5,-,N/A,,Clear,250,2013-03-14 08:53:00
4:53 AM,41.0,30.9,67,30.10,10.0,WSW,12.7,-,N/A,,Clear,250,2013-03-14 09:53:00
5:53 AM,39.0,30.0,70,30.11,10.0,West,11.5,-,N/A,,Clear,270,2013-03-14 10:53:00
6:53 AM,39.0,30.9,73,30.13,10.0,West,10.4,-,N/A,,Clear,260,2013-03-14 11:53:00
7:53 AM,41.0,30.9,67,30.15,10.0,West,13.8,-,N/A,,Clear,280,2013-03-14 12:53:00
8:53 AM,42.1,32.0,67,30.18,10.0,WNW,13.8,-,N/A,,Clear,290,2013-03-14 13:53:00
9:53 AM,50.0,35.1,57,30.20,10.0,West,8.1,-,N/A,,Clear,280,2013-03-14 14:53:00
10:53 AM,61.0,33.1,35,30.20,10.0,WNW,10.4,-,N/A,,Clear,300,2013-03-14 15:53:00
11:53 AM,66.9,30.9,26,30.19,10.0,NNW,8.1,-,N/A,,Clear,340,2013-03-14 16:53:00
12:53 PM,72.0,30.9,22,30.17,10.0,WNW,8.1,-,N/A,,Clear,300,2013-03-14 17:53:00
1:53 PM,73.0,28.9,20,30.16,10.0,NE,4.6,17.3,N/A,,Clear,40,2013-03-14 18:53:00
2:53 PM,73.9,27.0,18,30.13,10.0,WNW,9.2,-,N/A,,Clear,290,2013-03-14 19:53:00
3:53 PM,75.0,28.0,18,30.10,10.0,WNW,8.1,-,N/A,,Clear,300,2013-03-14 20:53:00
4:53 PM,75.0,25.0,16,30.09,10.0,Variable,3.5,-,N/A,,Clear,0,2013-03-14 21:53:00
5:53 PM,73.9,26.1,17,30.09,10.0,West,8.1,-,N/A,,Clear,270,2013-03-14 22:53:00
6:53 PM,73.0,27.0,18,30.08,10.0,Calm,Calm,-,N/A,,Clear,0,2013-03-14 23:53:00
7:53 PM,68.0,26.1,21,30.07,10.0,Calm,Calm,-,N/A,,Clear,0,2013-03-15 00:53:00
8:53 PM,62.1,28.0,28,30.07,10.0,ESE,4.6,-,N/A,,Clear,120,2013-03-15 01:53:00
9:53 PM,57.9,28.9,33,30.06,10.0,South,4.6,-,N/A,,Clear,190,2013-03-15 02:53:00
10:53 PM,55.0,30.0,38,30.04,10.0,SSW,5.8,-,N/A,,Clear,210,2013-03-15 03:53:00
11:53 PM,51.1,32.0,48,30.02,10.0,WSW,8.1,-,N/A,,Clear,250,2013-03-15 04:53:00